Flag for Canada Weather past 2 weeks in New Westminster, British Columbia, Canada

Now
47 °F

Cool.


Feels Like: 47 °F
Forecast: 40 / 52 °F
Wind: 1 mph from South

Location: P. Meadows Coastal Station

Current Time: Apr 1, 2015 at 11:32:38 AM

Latest Report: Apr 1, 2015 at 10:00 AM


Visibility: N/A

Pressure: 30.26 "Hg

Humidity: 79%

Dew point: 41 °F

Location of New WestminsterLocation

Historic Weather in New Westminster — Graph

°F

New Westminster temperature yesterday

Maximum temperature yesterday: 57 °F (at 1:00 AM)
Minimum temperature yesterday: 45 °F (at 11:00 PM)
Average temperature yesterday: 50 °F

Past Weeks' High & Low Weather Summary

 TemperatureHumidityPressure
High64 °F (Mar 27, 3:00 PM)100% (Mar 19, 7:00 AM)30.31 "Hg (Mar 19, 7:00 AM)
Low40 °F (Apr 1, 7:00 AM)41% (Mar 31, 3:00 PM)29.74 "Hg (Mar 31, 1:00 AM)
Average49 °F85%30.08 "Hg
* Reported Mar 17 10:00 AM — Apr 1 10:00 AM, New Westminster, Weather by CustomWeather, © 2015

Note: Actual official high and low records may vary slightly from our data, if they occured in-between our weather recording intervals... More about our weather records

Advertising

New Westminster weather history for previous 24 hours

 ConditionsComfort  
Time TempWeatherWind HumidityBarometerVisibility
10:00 AM
Wed, Apr 1
47 °FCool.1 mph79%30.26 "HgN/A
9:00 AM44 °FQuite cool.1 mph90%30.25 "HgN/A
8:00 AM41 °FQuite cool.No wind96%30.24 "HgN/A
7:00 AM40 °FQuite cool.2 mph95%30.22 "HgN/A
6:00 AM41 °FQuite cool.1 mph97%30.21 "HgN/A
5:00 AM42 °FQuite cool.1 mph97%30.20 "HgN/A
4:00 AM42 °FQuite cool.No wind96%30.18 "HgN/A
3:00 AM42 °FQuite cool.No wind96%30.17 "HgN/A
2:00 AM44 °FQuite cool.No wind92%30.16 "HgN/A
1:00 AM45 °FCool.No wind85%30.16 "HgN/A
12:00 AM45 °FCool.1 mph84%30.14 "HgN/A
11:00 PM
Tue, Mar 31
45 °FCool.1 mph80%30.13 "HgN/A
10:00 PM46 °FCool.2 mph75%30.12 "HgN/A
9:00 PM48 °FCool.1 mph67%30.10 "HgN/A
8:00 PM50 °FCool.3 mph60%30.09 "HgN/A
7:00 PM49 °FCool.2 mph59%30.08 "HgN/A
6:00 PM53 °FCool.3 mph52%30.07 "HgN/A
5:00 PM54 °FCool.7 mph46%30.06 "HgN/A
4:00 PM56 °FRefreshingly cool.7 mph43%30.06 "HgN/A
3:00 PM55 °FRefreshingly cool.10 mph41%30.06 "HgN/A
2:00 PM55 °FRefreshingly cool.9 mph46%30.05 "HgN/A
1:00 PM53 °FCool.8 mph52%30.04 "HgN/A
12:00 PM51 °FCool.7 mph70%30.02 "HgN/A
11:00 AM49 °FCool.2 mph75%30.01 "HgN/A
Weather by CustomWeather, © 2015

See weather overviewHow to use our weather pages